Temperature
14 14 14 14 13 13 13 13 13 13 12 12 12 12 12 13 13 13 13 13 13 13 13 13 13 14 14 14 14 14 14 14 14 14 14 14 14 14
13 13 13 13 13 13 13 13 13 13 12 12 12 12 12 12 12 12 12 12 13 13 13 13 13 13 13 13 13 13 13 14 14 14 14 14 14 14
13 13 13 13 13 13 13 13 13 12 12 12 12 12 12 12 12 12 12 12 12 12 12 12 12 12 13 13 13 13 13 13 13 13 13 13 14 14
13 13 13 13 13 13 13 13 13 12 12 12 12 12 12 12 12 12 12 12 12 12 12 12 12 12 12 12 12 12 12 12 13 13 13 13 13 13
13 13 13 13 13 13 13 13 12 12 12 12 12 12 12 12 12 12 12 12 12 12 12 12 12 12 12 12 12 12 12 12 12 12 12 12 12 12
13 13 13 13 13 13 12 12 12 12 12 12 12 12 11 11 11 11 12 12 12 11 11 11 11 11 11 11 11 11 11 11 11 11 11 12 12 12
13 13 13 12 12 12 12 12 12 12 12 11 11 11 11 11 11 11 11 11 11 11 11 11 11 11 11 11 11 11 10 10 11 11 11 11 11 11
13 13 12 12 12 12 12 12 11 11 11 11 11 11 10 10 10 10 10 10 10 10 10 10 10 10 10 10 10 10 10 10 10 10 10 10 10 10
13 12 12 12 12 12 12 11 11 11 11 11 10 10 10 10 10 10 9 9 9 9 9 10 10 9 9 9 9 9 9 9 9 9 9 9 10 10
13 12 12 12 12 11 11 11 11 11 11 10 10 10 10 9 9 9 9 9 9 9 9 9 9 9 9 9 9 9 9 9 9 9 9 9 9 9
12 12 12 12 12 11 11 11 11 10 10 10 10 9 9 9 9 9 8 8 8 9 8 8 8 8 8 8 8 8 8 8 8 8 8 8 8 8
12 12 12 12 11 11 11 10 10 10 10 10 9 9 9 9 8 8 8 8 7 7 8 7 7 7 7 7 8 8 8 8 8 8 8 8 8 8
12 12 12 11 11 11 10 10 10 10 10 9 9 9 9 9 8 8 8 7 7 7 7 6 6 6 6 6 7 7 7 7 7 7 7 7 7 7
12 11 11 11 11 10 10 10 10 9 9 9 9 9 9 8 8 8 7 7 7 6 6 6 5 5 5 5 5 6 6 6 6 6 6 6 6 6
11 11 11 10 10 10 10 10 9 9 9 9 9 9 8 8 8 7 7 7 7 6 6 6 5 5 5 5 5 5 5 5 6 5 5 5 6 6
10 10 10 10 10 9 9 9 9 9 8 8 8 8 8 8 7 7 7 6 6 6 6 6 5 5 5 5 4 4 4 4 5 5 5 5 5 5
10 10 9 9 9 9 9 9 9 8 8 8 8 8 7 7 7 7 6 6 5 5 6 6 5 5 5 4 4 4 4 4 4 4 4 4 5 5
9 9 9 9 9 9 9 8 8 8 8 7 7 7 7 7 6 6 6 5 5 5 5 5 5 4 4 4 4 4 4 4 4 4 4 3 4 4
9 9 9 8 8 8 8 8 7 7 7 7 6 6 6 6 6 5 5 5 5 5 5 4 4 3 3 3 3 3 3 3 3 3 3 3 3 3
9 8 8 8 8 8 7 7 7 7 6 6 6 6 5 5 5 5 5 5 4 4 4 4 4 3 3 2 2 3 3 2 2 2 2 3 3 3
8 8 8 8 7 7 7 7 6 6 6 5 5 5 5 5 5 4 4 4 4 3 3 3 3 3 2 2 2 2 3 2 2 2 2 2 2 2
8 8 7 7 7 7 6 6 6 5 5 5 5 4 4 4 4 4 4 3 3 3 3 3 3 2 2 2 2 2 2 2 2 2 2 1 1 1
7 7 7 7 6 6 6 5 5 5 5 4 4 4 4 4 3 3 3 3 3 2 2 2 2 2 2 2 1 1 1 1 1 2 2 2 2 1
Wind_Speed
4 4 3 3 3 2 2 3 3 2 2 3 3 4 8 8 10 10 10 12 13 13 12 12 12 12 12 13 13 12 11 11 10 9 8 8 8 8
3 4 4 2 3 3 2 2 2 3 1 2 2 3 5 7 9 9 9 11 12 12 11 11 12 12 12 13 13 13 12 11 11 11 10 9 9 9
3 3 3 2 3 3 2 2 2 2 2 1 2 3 3 5 7 9 9 9 10 12 12 11 11 11 12 12 12 12 12 12 11 11 11 10 10 10
2 3 2 2 3 2 2 2 2 1 2 0 2 3 3 4 5 5 7 8 9 10 11 11 11 11 11 11 12 12 12 12 12 11 11 11 10 10
2 2 1 2 2 1 2 2 1 1 1 1 1 2 2 3 3 4 5 6 8 9 9 10 11 12 12 12 12 12 11 12 12 12 12 11 11 11
1 2 2 2 2 1 1 1 1 2 1 1 1 2 2 3 2 3 4 4 5 7 8 9 11 11 12 12 12 12 12 12 12 12 12 12 12 11
1 1 1 2 2 2 1 1 2 1 1 1 1 2 2 2 3 2 3 5 4 4 4 6 8 8 9 10 10 11 11 12 12 13 13 13 13 12
2 1 1 1 1 1 1 2 2 2 1 1 1 1 3 2 2 2 2 3 4 3 3 5 5 5 7 8 10 11 12 12 13 13 13 13 13 13
3 2 1 1 1 1 0 1 1 0 2 3 2 3 3 3 2 2 2 3 4 4 2 5 4 5 7 8 10 11 12 12 13 13 13 14 14 14
3 4 3 2 2 3 2 0 1 2 2 2 3 4 4 4 3 3 3 3 4 3 1 3 4 4 6 8 10 11 10 11 13 14 14 14 14 14
3 3 4 4 4 4 2 2 2 3 4 4 4 5 6 5 3 0 1 2 4 4 1 2 3 4 4 5 8 10 10 12 14 14 14 14 14 14
2 2 4 5 5 4 3 3 4 5 3 3 4 5 5 5 5 3 3 2 3 4 2 2 3 3 4 3 5 8 10 12 14 14 14 14 14 11
3 3 4 6 6 6 5 4 6 5 3 3 3 3 3 3 4 4 4 4 4 5 4 2 3 3 4 5 5 6 8 9 10 11 13 14 14 11
4 4 4 6 6 6 5 6 7 5 2 2 3 3 4 4 4 5 7 8 8 9 8 5 4 4 5 7 7 5 6 9 9 8 10 13 13 14
4 6 6 6 6 5 6 7 5 3 2 3 4 5 5 5 4 4 5 6 8 10 10 9 7 5 5 7 7 7 7 7 7 7 8 8 9 9
4 4 6 6 4 5 5 4 3 3 4 5 5 5 3 3 3 3 4 4 4 6 8 10 10 7 7 8 8 10 8 7 6 8 8 9 10 11
3 1 1 2 3 3 3 3 3 3 4 4 4 5 4 4 5 4 3 3 4 6 6 5 7 9 9 8 9 10 10 9 9 9 8 10 9 10
3 2 3 4 5 5 5 4 4 5 5 5 5 5 6 6 6 5 4 5 6 7 7 6 5 5 5 7 11 10 9 9 9 9 8 9 11 10
4 4 5 5 6 5 5 5 6 6 5 5 6 6 6 6 6 6 6 6 7 8 8 6 5 5 8 11 7 10 9 9 9 9 8 9 11 11
4 5 6 6 6 6 6 6 6 5 5 5 6 6 6 6 6 7 6 7 8 8 8 6 6 7 9 11 9 8 11 10 9 10 10 9 10 12
5 6 6 6 6 6 6 6 6 6 6 5 6 7 6 6 7 7 7 9 8 7 9 9 9 11 8 6 8 9 7 12 13 10 10 10 11 10
6 6 6 7 6 6 6 6 6 6 6 6 6 7 7 7 8 9 8 8 8 8 10 9 7 6 5 8 12 12 12 10 13 17 17 15 10 10
6 6 6 6 6 6 6 6 7 7 7 7 7 7 7 7 8 8 8 8 8 9 9 9 7 6 8 9 11 11 13 13 10 10 10 15 20 23
Wind_Direction
67 66 62 44 54 66 88 115 127 90 6 332 338 343 358 16 21 24 21 21 26 29 31 31 29 26 23 21 18 15 14 15 14 10 4 355 348 338
71 71 61 46 52 57 74 81 99 133 136 311 306 318 346 9 16 22 22 23 24 23 25 27 26 25 23 21 16 13 11 8 6 2 356 350 345 338
64 76 66 64 66 57 66 74 76 105 134 306 319 330 352 358 0 12 16 18 16 20 24 25 22 19 16 14 11 7 5 3 359 355 351 347 342 335
93 87 69 73 63 57 70 75 79 99 134 330 334 342 341 340 345 354 3 6 7 11 16 17 15 12 10 8 5 2 0 358 356 351 347 342 337 333
145 132 124 100 73 60 70 74 65 72 101 127 320 322 321 337 344 345 351 352 358 0 5 9 8 6 3 1 360 358 357 355 352 349 345 339 334 328
165 158 161 162 170 154 106 101 95 77 75 89 336 328 323 325 354 344 342 341 341 350 352 354 355 359 358 357 356 356 356 354 350 346 342 338 333 328
178 186 191 191 183 167 151 160 134 108 86 65 335 339 333 337 329 320 325 322 323 340 337 339 342 344 344 345 349 351 352 352 351 349 344 340 335 330
191 218 231 242 226 195 170 160 151 152 173 170 245 265 283 278 292 306 316 334 321 326 333 315 329 323 327 332 338 343 344 344 344 342 340 339 336 333
189 195 212 223 185 155 179 31 356 226 193 185 208 242 254 254 260 285 281 275 275 290 318 302 312 307 314 322 331 335 337 338 338 337 334 334 332 328
201 198 203 225 210 178 159 108 306 297 276 233 216 240 247 245 224 238 252 272 278 283 281 288 302 296 304 306 316 325 330 331 332 331 328 327 327 325
229 213 206 217 229 206 172 211 277 290 288 276 271 280 288 289 272 246 309 313 302 294 264 259 288 297 292 288 301 314 319 322 322 321 320 321 322 320
241 241 230 224 233 224 200 205 247 267 278 305 308 304 303 297 289 243 220 242 271 285 263 248 280 310 305 281 289 302 307 309 311 308 310 314 316 315
223 240 243 239 238 234 222 216 240 249 246 264 283 292 299 296 292 274 240 223 238 256 256 228 260 270 271 290 292 286 290 295 300 298 302 304 305 304
223 233 238 241 242 240 237 242 251 256 239 256 271 275 273 273 274 278 266 252 245 251 260 242 246 254 270 284 289 288 285 287 288 288 294 298 298 297
228 230 237 247 251 255 253 251 250 235 228 246 259 260 254 259 277 290 287 278 273 268 266 251 245 254 252 266 278 282 292 288 278 280 288 291 290 292
241 248 249 255 247 251 262 266 249 231 229 241 254 259 259 263 265 263 270 278 285 284 274 262 255 247 259 264 270 280 280 280 283 282 285 286 284 279
215 231 245 258 258 264 264 263 255 250 249 246 248 260 266 268 268 260 254 258 264 282 290 287 276 263 254 260 271 273 276 278 277 282 286 287 282 277
196 229 237 237 242 247 251 258 252 248 248 245 248 253 259 262 269 266 255 255 267 274 278 281 291 301 295 268 241 262 270 275 281 280 276 284 287 283
210 230 236 239 242 244 243 244 249 250 245 244 249 253 254 258 261 264 263 265 270 273 274 274 272 277 289 293 271 236 259 279 283 284 279 277 283 286
224 234 240 242 243 243 243 245 250 253 247 248 249 251 250 254 258 261 261 262 269 274 278 273 262 260 266 279 285 279 257 262 275 281 284 283 280 279
236 241 244 244 244 243 245 244 245 249 250 248 251 251 251 251 257 260 262 264 265 270 274 273 266 266 268 277 282 282 273 260 260 270 281 285 289 289
242 244 247 247 246 245 244 243 248 250 249 249 252 254 252 249 254 258 260 263 264 266 271 277 279 276 261 269 277 285 289 286 277 272 267 265 272 278
246 246 248 248 248 248 246 244 246 251 248 248 252 254 254 254 253 254 256 259 264 270 277 282 282 270 266 267 273 280 284 287 289 288 280 270 264 265
Height
1563 1563 1563 1563 1563 1563 1563 1563 1564 1563 1563 1562 1561 1560 1559 1558 1557 1555 1554 1552 1550 1549 1548 1547 1547 1546 1545 1544 1543 1542 1541 1541 1541 1541 1541 1540 1540 1540
1564 1564 1564 1564 1564 1564 1564 1564 1564 1564 1563 1563 1562 1561 1559 1558 1557 1556 1554 1553 1551 1550 1548 1547 1546 1545 1544 1543 1542 1541 1540 1539 1539 1538 1537 1537 1537 1537
1565 1565 1565 1565 1565 1565 1565 1564 1564 1563 1563 1563 1562 1561 1560 1558 1557 1555 1554 1553 1551 1550 1548 1547 1546 1544 1543 1542 1541 1540 1539 1537 1536 1535 1534 1534 1533 1533
1565 1565 1565 1565 1565 1565 1565 1564 1564 1563 1563 1562 1561 1560 1559 1558 1556 1555 1553 1552 1551 1549 1548 1546 1545 1543 1542 1541 1539 1538 1536 1535 1534 1532 1531 1530 1529 1528
1565 1565 1565 1565 1565 1565 1564 1564 1563 1562 1562 1561 1560 1559 1558 1557 1555 1554 1552 1551 1550 1548 1547 1545 1544 1542 1540 1539 1537 1535 1534 1532 1531 1529 1528 1527 1526 1524
1565 1565 1565 1565 1564 1564 1563 1563 1562 1561 1561 1560 1558 1557 1556 1555 1554 1552 1550 1549 1548 1546 1545 1543 1542 1540 1538 1536 1534 1533 1531 1529 1527 1526 1525 1523 1522 1520
1564 1564 1564 1564 1563 1563 1562 1562 1561 1560 1559 1558 1557 1555 1554 1553 1552 1550 1548 1547 1545 1544 1542 1541 1539 1537 1535 1533 1532 1530 1528 1526 1524 1523 1521 1519 1518 1516
1563 1563 1563 1562 1562 1561 1561 1560 1560 1558 1557 1556 1555 1554 1552 1551 1550 1548 1546 1544 1542 1541 1539 1537 1536 1534 1532 1530 1528 1526 1524 1522 1520 1518 1517 1515 1513 1511
1560 1561 1560 1560 1560 1559 1559 1558 1557 1556 1555 1554 1553 1551 1550 1549 1547 1545 1544 1542 1540 1538 1536 1533 1532 1530 1529 1527 1525 1523 1521 1518 1516 1514 1512 1510 1509 1507
1558 1558 1558 1558 1557 1557 1556 1555 1554 1553 1552 1551 1550 1549 1548 1546 1545 1543 1541 1539 1537 1535 1533 1530 1528 1526 1524 1523 1521 1519 1517 1515 1512 1510 1508 1505 1503 1501
1555 1555 1555 1555 1554 1554 1553 1552 1551 1550 1550 1548 1547 1546 1545 1543 1542 1540 1537 1535 1532 1531 1529 1526 1523 1520 1518 1517 1516 1514 1512 1510 1508 1505 1502 1500 1498 1496
1552 1552 1551 1551 1551 1550 1549 1548 1547 1546 1546 1545 1544 1542 1541 1539 1538 1536 1534 1531 1528 1526 1525 1523 1519 1517 1512 1510 1510 1508 1506 1504 1502 1499 1497 1495 1492 1490
1548 1548 1548 1547 1547 1546 1545 1544 1543 1543 1541 1540 1539 1538 1536 1535 1533 1531 1529 1527 1525 1522 1521 1519 1515 1513 1510 1505 1503 1502 1500 1498 1495 1493 1491 1489 1486 1484
1544 1544 1544 1543 1543 1542 1541 1540 1539 1538 1537 1535 1534 1532 1530 1529 1527 1526 1524 1522 1521 1519 1517 1515 1511 1508 1505 1500 1497 1494 1493 1491 1489 1486 1484 1482 1480 1477
1540 1539 1539 1539 1538 1537 1536 1535 1534 1533 1531 1530 1528 1526 1525 1524 1522 1520 1519 1517 1515 1513 1511 1509 1506 1503 1500 1496 1492 1489 1486 1484 1482 1479 1477 1474 1472 1470
1535 1534 1534 1533 1532 1532 1531 1530 1529 1527 1526 1524 1522 1521 1520 1518 1516 1514 1512 1510 1507 1506 1505 1503 1500 1497 1493 1490 1487 1483 1481 1477 1475 1473 1470 1467 1465 1463
1530 1529 1528 1527 1526 1525 1525 1524 1523 1522 1520 1518 1517 1515 1513 1512 1510 1508 1506 1504 1501 1498 1496 1496 1494 1491 1487 1484 1480 1477 1474 1471 1468 1465 1462 1458 1456 1455
1524 1523 1522 1521 1520 1519 1518 1517 1516 1515 1513 1512 1510 1508 1507 1505 1503 1502 1500 1497 1494 1492 1490 1488 1486 1482 1479 1476 1475 1470 1467 1464 1461 1458 1455 1450 1446 1446
1518 1517 1516 1515 1514 1513 1512 1511 1509 1508 1507 1505 1503 1502 1500 1498 1496 1494 1492 1490 1487 1485 1483 1481 1479 1476 1471 1466 1465 1465 1461 1456 1453 1450 1447 1443 1438 1436
1512 1511 1510 1509 1508 1507 1505 1504 1503 1501 1500 1498 1496 1495 1493 1491 1489 1487 1485 1483 1481 1478 1476 1474 1472 1469 1466 1461 1456 1454 1454 1450 1446 1442 1439 1435 1431 1428
1506 1504 1503 1502 1501 1500 1498 1497 1495 1494 1492 1491 1489 1487 1486 1484 1482 1480 1478 1476 1473 1471 1468 1465 1464 1463 1459 1455 1450 1445 1444 1443 1440 1436 1431 1427 1422 1419
1499 1498 1496 1495 1494 1492 1491 1490 1488 1487 1485 1483 1482 1480 1478 1476 1474 1472 1470 1468 1466 1463 1460 1458 1456 1454 1451 1447 1442 1438 1435 1433 1431 1428 1425 1422 1417 1411
1492 1491 1489 1488 1487 1485 1484 1482 1481 1479 1478 1476 1474 1472 1471 1469 1467 1465 1463 1461 1458 1456 1453 1450 1448 1446 1443 1439 1435 1431 1427 1424 1421 1417 1414 1413 1410 1406